Regional Weather Roundup
Issued by NWS

Home | Current Version | Previous Version | Text Only | Print | Product List | Glossary Off
Versions: 1 2 3 4 5 6 7 8 9 10 11 12 13 14 15 16 17 18 19 20 21 22 23 24 25 26 27 28 29 30 31 32 33 34 35 36 37 38 39 40 41 42 43 44 45 46 47 48 49 50

000
ASUS43 KIND 230659
RWRIN

WEATHER ROUNDUP FOR INDIANA
NATIONAL WEATHER SERVICE INDIANAPOLIS IN
300 AM EDT TUE AUG 23 2016

NOTE: "FAIR" INDICATES FEW OR NO CLOUDS BELOW 12,000 FEET WITH NO
SIGNIFICANT WEATHER AND/OR OBSTRUCTIONS TO VISIBILITY.

* - STATION DOES NOT REPORT WEATHER SUCH AS PRECIPITATION OR FOG.

+ - STATION NOT QUALITY CONTROLLED BY THE NATIONAL WEATHER SERVICE.
    USE DATA WITH CAUTION...ESPECIALLY DEWPOINT AND RELATIVE
    HUMIDITY OBSERVATIONS.

INZ001>003-010>013-019-020-230800-
NORTHWEST INDIANA

CITY           SKY/WX    TMP DP  RH WIND       PRES   REMARKS
KNOX *+        CLEAR     55  43  62 SE3       30.22S
MONTICELLO +   CLEAR     60  56  88 CALM      30.21F
RENSSELAER +   CLEAR     55  55 100 CALM      30.21S

$$

LMZ046-743>745-230800-
SOUTHERN LAKE MICHIGAN

STATION/POSITION TIME  TEMP    WIND        PRES    WAVE
                       AIR SEA DIR/SP/G            HT
                 (UTC) (F)     (DEG/KT/KT) (MB)    (FT)
BURNS HARBOR     0600   67     190/  8/ 11 1023.0
MICHIGAN CITY    0620   68     150/ 11/ 13   N/A
5NW MICH CITY    0600   69 73  180/ 10/ 12   N/A     1

$$

INZ004-005-014>016-021>024-230800-
NORTH CENTRAL INDIANA

CITY           SKY/WX    TMP DP  RH WIND       PRES   REMARKS
GOSHEN         CLEAR     58  54  86 CALM      30.23S
SOUTH BEND     CLEAR     59  55  87 CALM      30.23R

$$

INZ006>009-017-018-025>027-230800-
NORTHEAST INDIANA

CITY           SKY/WX    TMP DP  RH WIND       PRES   REMARKS
ANGOLA *+      CLEAR     55  55 100 CALM      30.24S
FORT WAYNE     CLEAR     58  54  86 CALM      30.24S

$$

INZ028-029-035-036-043>045-051>053-230800-
WEST CENTRAL INDIANA

CITY           SKY/WX    TMP DP  RH WIND       PRES   REMARKS
CRAWFORDSVL +  CLEAR     53  53 100 CALM      30.22S
GREENCASTLE +  CLEAR     59  59 100 CALM      30.24S
LAFAYETTE      CLEAR     58  58 100 CALM      30.21S
TERRE HAUTE    PTCLDY    59  56  89 CALM      30.22S

$$

INZ030>032-037>040-046>048-054>057-064-065-230800-
CENTRAL INDIANA

CITY           SKY/WX    TMP DP  RH WIND       PRES   REMARKS
INDIANAPOLIS   CLEAR     65  58  78 SE3       30.23S
-EAGLE CREEK   CLEAR     63  58  83 CALM      30.23S
KOKOMO *+      CLEAR     57  52  82 CALM      30.23F
MT COMFORT *+  CLEAR     57  55  94 CALM      30.24S
SHELBYVILLE    CLEAR     60  56  86 E3        30.23S

$$

INZ033-034-041-042-049-050-058-059-230800-
EAST CENTRAL INDIANA

CITY           SKY/WX    TMP DP  RH WIND       PRES   REMARKS
MUNCIE         CLEAR     59  56  89 CALM      30.25R

$$

INZ060-061-067>069-081>083-085>088-230800-
SOUTHWEST INDIANA

CITY           SKY/WX    TMP DP  RH WIND       PRES   REMARKS
EVANSVILLE     PTCLDY    63  61  93 CALM      30.21S FOG
HUNTINGBURG *+ CLEAR     61  59  94 CALM      30.22S

$$

INZ062-063-066-070>080-084-089>092-230800-
SOUTH CENTRAL AND SOUTHEAST INDIANA

CITY           SKY/WX    TMP DP  RH WIND       PRES   REMARKS
BLOOMINGTON    CLEAR     58  56  93 CALM      30.23S
MADISON *+     CLEAR     61  59  94 CALM      30.26S

$$





USA.gov is the U.S. government's official web portal to all federal, state and local government web resources and services.